Météo par heure à Kissonerga

Ce jour, 8 Mars, Lundi

Heure Température Précipitation Vent Pression Humidité
00:00 +14°C° 0 mm 5 m/s 761 mmHg 85%
01:00 +14°C° 0 mm 4 m/s 760 mmHg 85%
02:00 +14°C° 0 mm 4 m/s 760 mmHg 85%
03:00 +14°C° 0 mm 5 m/s 760 mmHg 85%
04:00 +14°C° 0 mm 5 m/s 760 mmHg 85%
05:00 +13°C° 0 mm 5 m/s 760 mmHg 85%
06:00 +14°C° 0 mm 5 m/s 760 mmHg 83%
07:00 +15°C° 0 mm 5 m/s 760 mmHg 81%
08:00 +15°C° 0 mm 5 m/s 760 mmHg 79%
09:00 +16°C° 0 mm 6 m/s 761 mmHg 74%
10:00 +17°C° 0 mm 6 m/s 761 mmHg 69%
11:00 +19°C° 0 mm 6 m/s 761 mmHg 64%
12:00 +18°C° 0 mm 7 m/s 761 mmHg 60%
13:00 +18°C° 0 mm 7 m/s 760 mmHg 57%
14:00 +18°C° 0 mm 7 m/s 760 mmHg 54%
15:00 +17°C° 0 mm 6 m/s 760 mmHg 54%
16:00 +16°C° 0 mm 6 m/s 760 mmHg 55%
17:00 +15°C° 0 mm 5 m/s 760 mmHg 56%
18:00 +14°C° 0 mm 4 m/s 760 mmHg 60%
19:00 +14°C° 0 mm 4 m/s 760 mmHg 64%
20:00 +13°C° 0 mm 3 m/s 761 mmHg 68%
21:00 +12°C° 0 mm 3 m/s 761 mmHg 68%
22:00 +12°C° 0 mm 3 m/s 761 mmHg 68%
23:00 +12°C° 0 mm 3 m/s 761 mmHg 68%

Demain, 9 Mars, Mardi

Heure Température Précipitation Vent Pression Humidité
00:00 +12°C° 0 mm 3 m/s 761 mmHg 69%
01:00 +12°C° 0 mm 3 m/s 761 mmHg 70%
02:00 +12°C° 0 mm 3 m/s 760 mmHg 71%
03:00 +12°C° 0 mm 3 m/s 760 mmHg 73%
04:00 +13°C° 0 mm 2 m/s 760 mmHg 75%
05:00 +12°C° 0 mm 2 m/s 760 mmHg 77%
06:00 +14°C° 0 mm 2 m/s 760 mmHg 74%
07:00 +15°C° 0 mm 2 m/s 761 mmHg 70%
08:00 +16°C° 0 mm 2 m/s 761 mmHg 67%
09:00 +17°C° 0 mm 2 m/s 761 mmHg 64%
10:00 +17°C° 0 mm 2 m/s 761 mmHg 61%
11:00 +18°C° 0 mm 3 m/s 761 mmHg 59%
12:00 +19°C° 0 mm 3 m/s 761 mmHg 56%
13:00 +20°C° 0 mm 3 m/s 761 mmHg 54%
14:00 +21°C° 0 mm 3 m/s 760 mmHg 51%
15:00 +20°C° 0 mm 3 m/s 760 mmHg 56%
16:00 +19°C° 0 mm 2 m/s 760 mmHg 61%
17:00 +19°C° 0 mm 1 m/s 760 mmHg 65%
18:00 +17°C° 0 mm 2 m/s 760 mmHg 70%
19:00 +16°C° 0 mm 2 m/s 760 mmHg 75%
20:00 +15°C° 0 mm 2 m/s 761 mmHg 80%
21:00 +15°C° 0 mm 2 m/s 761 mmHg 78%
22:00 +15°C° 0 mm 2 m/s 761 mmHg 75%
23:00 +15°C° 0 mm 2 m/s 761 mmHg 73%

Après-demain, 10 Mars, Mercredi

Heure Température Précipitation Vent Pression Humidité
00:00 +15°C° 0 mm 2 m/s 760 mmHg 71%
01:00 +15°C° 0 mm 2 m/s 760 mmHg 68%
02:00 +14°C° 0 mm 2 m/s 760 mmHg 66%
03:00 +13°C° 0 mm 3 m/s 760 mmHg 63%
04:00 +13°C° 0 mm 3 m/s 759 mmHg 60%
05:00 +13°C° 0 mm 3 m/s 759 mmHg 57%
06:00 +16°C° 0 mm 3 m/s 759 mmHg 53%
07:00 +18°C° 0 mm 3 m/s 759 mmHg 50%
08:00 +19°C° 0 mm 3 m/s 759 mmHg 46%
09:00 +21°C° 0 mm 3 m/s 759 mmHg 43%
10:00 +24°C° 0 mm 3 m/s 759 mmHg 39%
11:00 +25°C° 0 mm 3 m/s 759 mmHg 36%
12:00 +25°C° 0 mm 3 m/s 758 mmHg 38%
13:00 +25°C° 0 mm 4 m/s 758 mmHg 40%
14:00 +25°C° 0 mm 4 m/s 757 mmHg 41%
15:00 +24°C° 0 mm 3 m/s 757 mmHg 48%
16:00 +21°C° 0 mm 3 m/s 757 mmHg 55%
17:00 +20°C° 0 mm 2 m/s 756 mmHg 62%
18:00 +19°C° 0 mm 2 m/s 757 mmHg 67%
19:00 +18°C° 0 mm 2 m/s 757 mmHg 72%
20:00 +16°C° 0 mm 2 m/s 757 mmHg 77%
21:00 +16°C° 0 mm 2 m/s 757 mmHg 78%
22:00 +16°C° 0 mm 2 m/s 757 mmHg 78%
23:00 +16°C° 0 mm 2 m/s 758 mmHg 79%

11 Mars, Jeudi

Heure Température Précipitation Vent Pression Humidité
00:00 +14°C° 0 mm 3 m/s 757 mmHg 80%
01:00 +14°C° 0 mm 3 m/s 757 mmHg 82%
02:00 +14°C° 0 mm 3 m/s 757 mmHg 84%
03:00 +13°C° 0 mm 4 m/s 757 mmHg 84%
04:00 +13°C° 0 mm 4 m/s 757 mmHg 84%
05:00 +13°C° 0 mm 4 m/s 757 mmHg 84%
06:00 +14°C° 0 mm 5 m/s 757 mmHg 81%
07:00 +15°C° 0 mm 5 m/s 758 mmHg 78%
08:00 +16°C° 0 mm 5 m/s 758 mmHg 75%
09:00 +17°C° 0 mm 6 m/s 758 mmHg 73%
10:00 +17°C° 0 mm 8 m/s 758 mmHg 72%
11:00 +18°C° 0 mm 10 m/s 758 mmHg 70%
12:00 +18°C° 0 mm 10 m/s 758 mmHg 70%
13:00 +18°C° 0 mm 10 m/s 757 mmHg 70%
14:00 +18°C° 0 mm 11 m/s 757 mmHg 70%
15:00 +17°C° 0 mm 10 m/s 757 mmHg 71%
16:00 +17°C° 0 mm 10 m/s 757 mmHg 71%
17:00 +16°C° 0 mm 10 m/s 757 mmHg 72%
18:00 +16°C° 0 mm 9 m/s 758 mmHg 75%
19:00 +15°C° 0 mm 9 m/s 758 mmHg 78%
20:00 +15°C° 0 mm 8 m/s 759 mmHg 80%
21:00 +13°C° 0 mm 8 m/s 759 mmHg 78%
22:00 +14°C° 0 mm 7 m/s 760 mmHg 76%
23:00 +13°C° 0 mm 6 m/s 760 mmHg 74%

12 Mars, Vendredi

Heure Température Précipitation Vent Pression Humidité
00:00 +13°C° 0 mm 5 m/s 760 mmHg 73%
01:00 +12°C° 0 mm 5 m/s 761 mmHg 71%
02:00 +12°C° 0 mm 4 m/s 761 mmHg 69%
03:00 +11°C° 0 mm 3 m/s 761 mmHg 67%
04:00 +11°C° 0 mm 3 m/s 761 mmHg 66%
05:00 +12°C° 0 mm 2 m/s 762 mmHg 64%
06:00 +13°C° 0 mm 2 m/s 762 mmHg 63%
07:00 +13°C° 0 mm 3 m/s 763 mmHg 61%
08:00 +16°C° 0 mm 3 m/s 763 mmHg 60%
09:00 +15°C° 0 mm 4 m/s 763 mmHg 58%
10:00 +17°C° 0 mm 4 m/s 764 mmHg 55%
11:00 +17°C° 0 mm 4 m/s 764 mmHg 53%
12:00 +18°C° 0 mm 4 m/s 764 mmHg 53%
13:00 +18°C° 0 mm 4 m/s 764 mmHg 53%
14:00 +18°C° 0 mm 4 m/s 763 mmHg 52%
15:00 +17°C° 0 mm 4 m/s 763 mmHg 54%
16:00 +17°C° 0 mm 4 m/s 764 mmHg 56%
17:00 +16°C° 0 mm 3 m/s 764 mmHg 58%
18:00 +14°C° 0 mm 3 m/s 764 mmHg 61%
19:00 +14°C° 0 mm 2 m/s 764 mmHg 64%
20:00 +13°C° 0 mm 2 m/s 765 mmHg 68%
21:00 +12°C° 0 mm 2 m/s 765 mmHg 68%
22:00 +12°C° 0 mm 1 m/s 765 mmHg 68%
23:00 +11°C° 0 mm 1 m/s 765 mmHg 69%

13 Mars, Samedi

Heure Température Précipitation Vent Pression Humidité
00:00 +11°C° 0 mm 1 m/s 765 mmHg 68%
01:00 +11°C° 0 mm 1 m/s 764 mmHg 67%
02:00 +11°C° 0 mm 1 m/s 764 mmHg 66%
03:00 +11°C° 0 mm 1 m/s 764 mmHg 66%
04:00 +10°C° 0 mm 1 m/s 764 mmHg 66%
05:00 +10°C° 0 mm 1 m/s 764 mmHg 67%
06:00 +12°C° 0 mm 1 m/s 764 mmHg 60%
07:00 +14°C° 0 mm 1 m/s 765 mmHg 54%
08:00 +15°C° 0 mm 1 m/s 765 mmHg 48%
09:00 +16°C° 0 mm 1 m/s 765 mmHg 48%
10:00 +18°C° 0 mm 1 m/s 765 mmHg 49%
11:00 +19°C° 0 mm 1 m/s 765 mmHg 50%
12:00 +19°C° 0 mm 1 m/s 765 mmHg 52%
13:00 +18°C° 0 mm 2 m/s 764 mmHg 54%
14:00 +18°C° 0 mm 2 m/s 764 mmHg 56%
15:00 +18°C° 0 mm 2 m/s 764 mmHg 58%
16:00 +17°C° 0 mm 2 m/s 764 mmHg 60%
17:00 +17°C° 0 mm 2 m/s 763 mmHg 63%
18:00 +16°C° 0 mm 2 m/s 763 mmHg 67%
19:00 +15°C° 0 mm 1 m/s 763 mmHg 72%
20:00 +14°C° 0 mm 1 m/s 763 mmHg 77%
21:00 +13°C° 0 mm 2 m/s 763 mmHg 79%
22:00 +13°C° 0 mm 2 m/s 763 mmHg 80%
23:00 +13°C° 0 mm 2 m/s 763 mmHg 82%
Voir plus

Nous avons besoin de votre consentement

Meteoprog et ses fournisseurs de services peuvent stocker et accéder à des données personnelles telles que des cookies, des identifiants d'appareils ou d'autres technologies similaires sur votre appareil et traiter ces données pour personnaliser le contenu et les publicités, ainsi que pour fournir des fonctionnalités de médias sociaux et analyser le trafic.

  • Stocker et/ou accéder à des informations sur votre appareil

    Des cookies, des identifiants d'appareils ou d'autres informations peuvent être stockés ou accessibles sur votre appareil aux fins indiquées ci-dessus.

  • Annonces et contenus personnalisés, mesure des annonces et des contenus, connaissance de l'audience et développement de produits

    Les annonces et le contenu peuvent être personnalisés en fonction d'un profil. D'autres données peuvent être ajoutées pour mieux personnaliser les annonces et le contenu. Les performances des publicités et du contenu peuvent être mesurées. Il est possible d'obtenir des informations sur le public qui a vu les publicités et le contenu. Ces données peuvent être utilisées pour développer ou améliorer l'expérience de l'utilisateur, les systèmes et les logiciels.

En cliquant sur "J'accepte", vous autorisez l'utilisation de cookies, des identifiants d'appareils, des balises web ou d'autres technologies similaires. Vos paramètres peuvent être modifiés dans le navigateur de votre appareil.

Dans certains cas, des intérêts légitimes peuvent être invoqués plutôt qu'un consentement. Vous pouvez en savoir plus à ce sujet dans notre Politique de confidentialité et de cookies.